Weather History for Fountain Dale, PA

Change the Weather History Date:

Monday, February 18, 2013

  Actual Average (KHGR) Record (KHGR)
Temperature  
Mean Temperature 30 °F -  
Max Temperature 41 °F 42 °F - (0)
Min Temperature 19 °F 26 °F - (0)
Degree Days  
Heating Degree Days 35    
Moisture  
Dew Point 8 °F    
Average Humidity 45    
Maximum Humidity 54    
Minimum Humidity 25    
Precipitation  
Precipitation 0.00 in - - ()
Sea Level Pressure  
Sea Level Pressure 30.26 in    
Wind  
Wind Speed 5 mph (West)    
Max Wind Speed 9 mph    
Max Gust Speed 21 mph    
Visibility 10 miles    
Events      
T = Trace of Precipitation, MM = Missing Value Source: NWS Daily Summary

Daily Weather History Graph

Daily Weather History Graph

Search for Another Location

Airport:

Trip Planner

Search our weather history database for the weather conditions in past years. The results will help you decide how hot, cold, wet, or windy it might be!

Date:

Astronomy

Feb. 18, 2013 Rise Set
Actual Time 6:58 AM EST 5:49 PM EST
Civil Twilight 6:30 AM EST 6:17 PM EST
Nautical Twilight 5:59 AM EST 6:48 PM EST
Astronomical Twilight 5:27 AM EST 7:20 PM EST
Moon 11:34 AM EST 1:35 AM EST
Length of Visible Light 11h 46m
Length of Day
10h 51m
First Quarter, 58% of the Moon is Illuminated
Feb 18
First Quarter
Feb 25
Full
Mar 4
Last Quarter
Mar 11
New
Mar 19
First Quarter

Hourly Weather History & Observations

Time (EST) Temp. Windchill Dew Point Humidity Pressure Visibility Wind Dir Wind Speed Gust Speed Precip Events Conditions
12:53 AM 19.9 °F 9.3 °F 3.0 °F 48% 30.22 in 10.0 mi WNW 9.2 mph 16.1 mph N/A   Clear
1:53 AM 19.9 °F 12.1 °F 3.0 °F 48% 30.23 in 10.0 mi Variable 5.8 mph 20.7 mph N/A   Clear
2:53 AM 19.0 °F 11.1 °F 3.9 °F 52% 30.23 in 10.0 mi Variable 5.8 mph 19.6 mph N/A   Clear
3:53 AM 19.0 °F 12.3 °F 3.0 °F 50% 30.22 in 10.0 mi Variable 4.6 mph 18.4 mph N/A   Clear
4:53 AM 19.0 °F 11.1 °F 3.0 °F 50% 30.25 in 10.0 mi Variable 5.8 mph - N/A   Clear
5:53 AM 19.0 °F 13.9 °F 3.9 °F 52% 30.29 in 10.0 mi Variable 3.5 mph - N/A   Clear
6:53 AM 19.0 °F 13.9 °F 3.9 °F 52% 30.32 in 10.0 mi Variable 3.5 mph - N/A   Clear
7:53 AM 19.0 °F 13.9 °F 3.9 °F 52% 30.34 in 10.0 mi Variable 3.5 mph - N/A   Clear
8:53 AM 21.0 °F 13.4 °F 6.1 °F 53% 30.38 in 10.0 mi Variable 5.8 mph 16.1 mph N/A   Clear
9:53 AM 23.0 °F 13.9 °F 6.1 °F 48% 30.37 in 10.0 mi WNW 8.1 mph 17.3 mph N/A   Clear
10:53 AM 26.1 °F 16.8 °F 7.0 °F 44% 30.37 in 10.0 mi West 9.2 mph - N/A   Clear
11:53 AM 28.9 °F 22.8 °F 9.0 °F 43% 30.33 in 10.0 mi Variable 5.8 mph - N/A   Clear
12:53 PM 33.1 °F 26.9 °F 8.1 °F 35% 30.28 in 10.0 mi Variable 6.9 mph - N/A   Clear
1:53 PM 35.1 °F 30.1 °F 8.1 °F 33% 30.26 in 10.0 mi WNW 5.8 mph - N/A   Clear
2:53 PM 39.0 °F - 7.0 °F 27% 30.24 in 10.0 mi Calm Calm - N/A   Clear
3:53 PM 41.0 °F 38.0 °F 7.0 °F 25% 30.22 in 10.0 mi Variable 4.6 mph - N/A   Clear
4:53 PM 39.0 °F 33.4 °F 10.9 °F 32% 30.23 in 10.0 mi SW 8.1 mph - N/A   Clear
5:53 PM 36.0 °F - 12.9 °F 39% 30.24 in 10.0 mi Calm Calm - N/A   Clear
6:53 PM 33.1 °F - 15.1 °F 48% 30.23 in 10.0 mi Calm Calm - N/A   Clear
7:53 PM 32.0 °F - 15.1 °F 50% 30.22 in 10.0 mi Calm Calm - N/A   Clear
8:53 PM 32.0 °F - 14.0 °F 48% 30.20 in 10.0 mi Calm Calm - N/A   Clear
9:53 PM 32.0 °F - 12.9 °F 45% 30.18 in 10.0 mi Calm Calm - N/A   Clear
10:53 PM 32.0 °F - 15.1 °F 50% 30.16 in 10.0 mi Calm Calm - N/A   Clear
11:53 PM 32.0 °F - 17.1 °F 54% 30.14 in 10.0 mi Calm Calm - N/A   Clear